Hourly Data Report for August 30, 2017

QUALICUM BEACH AIRPORT
BRITISH COLUMBIA

49°20'14.000" N
124°23'38.000" W
58.20 m
1026562
71766
VOQ

Download Data

Hourly Data (August 2017)
Hourly Data Report for August 30, 2017
TIME
LST
Temp Definition
°C
Dew Point Definition
°C
Rel Hum Definition
%
Precip. Amount Definition
mm

Wind Dir Definition
10's deg

Wind Spd Definition
km/h
Visibility Definition
km
Stn Press Definition
kPa
Hmdx Definition


Wind Chill Definition


Weather Definition


00:00 15.2 12.3 83 0.0 25 3   100.35     LegendNANA
01:00 13.5 11.5 88 0.0 24 2   100.37     LegendNANA
02:00 12.8 11.5 92 0.0 22 2   100.42     LegendNANA
03:00 13.4 11.6 89 0.0 26 3   100.49     LegendNANA
04:00 13.0 11.4 90 0.0 25 3   100.52     LegendNANA
05:00 12.1 10.6 91 0.0 23 2   100.56     LegendNANA
06:00 11.5 10.3 92 0.0 14 6   100.62     LegendNANA
07:00 14.9 12.1 83 0.0 12 2   100.68     LegendNANA
08:00 18.7 13.6 72 0.0 10 6   100.70     LegendNANA
09:00 19.3 14.2 73 0.0 9 10   100.73     LegendNANA
10:00 18.5 14.6 78 0.0 9 14   100.78     LegendNANA
11:00 18.8 14.5 76 0.0 9 8   100.82     LegendNANA
12:00 18.7 15.0 79 0.0 10 12   100.83     LegendNANA
13:00 19.8 14.7 73 0.0 9 11   100.83     LegendNANA
14:00 20.7 15.1 70 0.0 10 16   100.81 25   LegendNANA
15:00 20.4 14.7 70 0.0 11 13   100.84     LegendNANA
16:00 20.9 14.8 68 0.0 10 12   100.83 25   LegendNANA
17:00 19.6 14.5 72 0.0 10 12   100.85     LegendNANA
18:00 19.1 15.3 79 0.0 9 5   100.86     LegendNANA
19:00 18.0 15.3 84 0.0 8 1   100.88     LegendNANA
20:00 16.6 15.3 92 0.0 12 3   100.91     LegendNANA
21:00 16.3 15.2 93 0.0 23 2   100.95     LegendNANA
22:00 15.3 14.5 95 0.0 28 3   100.96     LegendNANA
23:00 14.5 13.9 96 0.0 31 2   101.00     LegendNANA

Notes on Data Quality.

Legend

  • E = Estimated
  • M = Missing
  • NA = Not Available*
  • [empty] = Indicates an unobserved value
Date modified: